Torna al catalogo

MIMAN

AttivoScienzaSSO
NORAD 52900·PAYLOAD·🇰🇷 South Korea

Lanciato Jun 21, 2022 da Naro Space Center

Loading…

Prossimi Passaggi (prossime 24 ore)

TLE

AggiornatoSource: Space-Track

Epoca: Sep 14, 2026, 15:26 UTC

1 52900U 22065G   26257.64336348  .00000368  00000-0  83111-4 0  9995
2 52900  98.2397  39.7461 0008838 104.6605 255.5576 14.61924775223519

Traccia MIMAN in tempo reale con AllMySat

Download on the App Store